SBONWEB Weather Reports


time (UTC)temp
C
wind
direction
speed
KPH
gust
KPH
rain 1hr
cm
rain 24hr
cm
rain mn
cm
humidity
%
barometer
mb
20260506210003 11 299 6.4 16.1 0.00 2.92 2.69 93 1011.3
20260506205617 11 350 4.8 16.1 0.00 2.95 2.69 93 1011.1
20260506204503 11 22 6.4 11.3 0.00 2.97 2.69 93 1011.0
20260506203603 11 20 8.0 14.5 0.00 2.97 2.69 93 1010.9
20260506202704 11 4 8.0 12.9 0.00 3.02 2.69 93 1010.7
20260506201803 10 9 6.4 11.3 0.00 3.02 2.69 93 1010.8
20260506200903 10 21 6.4 12.9 0.00 3.02 2.69 93 1010.8
20260506200004 10 13 8.0 14.5 0.00 3.02 2.69 93 1010.6
20260506195404 10 11 6.4 14.5 0.00 3.02 2.69 94 1010.5
20260506194503 10 356 4.8 8.0 0.00 3.02 2.69 94 1010.4
20260506193603 10 29 1.6 6.4 0.00 3.02 2.69 94 1010.4
20260506192703 10 188 1.6 4.8 0.03 3.05 2.69 94 1010.5
20260506191804 10 221 3.2 4.8 0.03 3.05 2.69 94 1010.2
20260506190903 11 256 3.2 6.4 0.13 3.10 2.69 93 1009.9
20260506190217 11 249 1.6 6.4 0.25 3.12 2.69 93 1009.6
20260506185403 11 228 3.2 4.8 0.33 3.25 2.69 93 1009.7
20260506184503 11 338 3.2 8.0 0.38 3.33 2.69 92 1009.3
20260506183817 11 357 4.8 11.3 0.43 3.33 2.69 92 1009.1
20260506182918 11 27 4.8 11.3 0.56 3.33 2.67 91 1008.6
20260506182018 11 46 11.3 25.7 0.61 3.33 2.67 92 1008.3
20260506180903 11 67 4.8 19.3 0.56 3.33 2.57 91 1009.0
20260506180218 11 175 6.4 11.3 0.43 3.23 2.41 91 1009.6
20260506175403 12 141 9.7 16.1 0.36 3.20 2.34 89 1009.4
20260506174503 12 94 6.4 16.1 0.33 3.20 2.31 86 1008.7
20260506173817 12 124 4.8 12.9 0.25 3.15 2.24 90 1008.9
20260506172703 12 122 9.7 17.7 0.10 2.97 2.08 88 1008.7
20260506171803 12 9 11.3 22.5 0.05 2.95 2.03 85 1008.4
20260506170903 13 352 12.9 20.9 0.03 2.95 2.01 84 1008.4
20260506170004 13 9 9.7 22.5 0.00 3.05 1.98 82 1008.3
20260506165403 13 3 8.0 19.3 0.00 3.07 1.98 83 1008.2
20260506164503 13 352 6.4 17.7 0.00 3.12 1.98 84 1008.2
20260506163603 13 9 6.4 11.3 0.00 3.15 1.98 86 1008.0
20260506162917 13 352 4.8 12.9 0.00 3.20 1.98 86 1007.8
20260506161803 13 300 4.8 14.5 0.00 3.23 1.98 86 1007.9
20260506160903 13 300 9.7 16.1 0.00 3.25 1.98 86 1007.6
20260506160008 13 356 11.3 17.7 0.00 3.25 1.98 85 1007.2
20260506155617 13 4 11.3 17.7 0.00 3.25 1.98 83 1007.2
20260506154503 13 20 9.7 22.5 0.00 3.25 1.98 81 1007.5
20260506153603 13 32 9.7 20.9 0.00 3.25 1.98 82 1007.7
20260506152704 13 24 14.5 20.9 0.00 3.28 1.98 82 1007.7
20260506151803 13 19 14.5 22.5 0.00 3.28 1.98 83 1007.7
20260506150903 13 5 14.5 25.7 0.00 3.28 1.98 85 1007.7
20260506150003 12 9 11.3 20.9 0.00 3.28 1.98 87 1008.0
20260506145403 12 19 6.4 20.9 0.00 3.30 1.98 87 1008.2
20260506144503 13 29 6.4 9.7 0.00 3.33 1.98 92 1008.1
20260506143604 12 10 11.3 24.1 0.00 3.33 1.98 91 1008.1
20260506142916 12 15 11.3 24.1 0.00 3.33 1.98 88 1008.1
20260506141804 12 25 12.9 20.9 0.00 3.33 1.98 91 1008.3
20260506141117 13 19 12.9 22.5 0.03 3.33 1.98 93 1008.2
20260506140003 12 355 8.0 20.9 0.23 3.33 1.98 94 1008.1
20260506135403 12 299 6.4 16.1 0.36 3.33 1.98 94 1008.1
20260506134503 12 353 8.0 16.1 0.61 3.33 1.98 95 1008.1
20260506133603 12 23 8.0 14.5 0.71 3.35 1.98 94 1008.2
20260506132703 11 10 8.0 14.5 0.76 3.35 1.98 94 1008.4
20260506132017 11 1 4.8 14.5 0.76 3.38 1.98 94 1008.4
20260506130903 11 276 3.2 6.4 0.71 3.33 1.93 94 1008.5
20260506130003 11 31 8.0 14.5 0.53 3.15 1.75 93 1008.6
20260506125403 11 261 8.0 24.1 0.41 3.05 1.63 92 1008.2
20260506124717 11 256 8.0 24.1 0.18 2.82 1.40 90 1008.2
20260506123603 13 173 8.0 16.1 0.05 2.69 1.27 84 1008.4
20260506122703 15 99 16.1 20.9 0.00 2.67 1.22 88 1008.2
20260506121803 15 98 16.1 25.7 0.00 2.67 1.22 87 1008.0
20260506120903 15 90 11.3 30.6 0.00 2.67 1.22 86 1007.8
20260506120003 15 76 9.7 20.9 0.00 2.67 1.22 87 1007.8
20260506115403 15 78 12.9 20.9 0.00 2.69 1.22 89 1007.7
20260506114717 15 87 12.9 19.3 0.05 2.69 1.22 88 1007.8
20260506113603 14 101 14.5 24.1 0.05 2.69 1.22 88 1007.9
20260506112703 15 101 12.9 24.1 0.05 2.69 1.22 89 1007.9
20260506112016 15 99 12.9 25.7 0.05 2.72 1.22 89 1008.0
20260506110903 14 101 14.5 30.6 0.05 2.77 1.22 91 1008.0
20260506110003 13 91 11.3 30.6 0.05 2.82 1.22 92 1008.0
20260506105403 13 91 12.9 25.7 0.05 2.82 1.22 94 1008.1
20260506104503 13 99 12.9 25.7 0.00 2.79 1.17 93 1008.1
20260506103603 13 93 12.9 20.9 0.00 2.82 1.17 93 1008.2
20260506102703 13 93 11.3 30.6 0.00 2.84 1.17 93 1008.3
20260506101803 13 80 11.3 30.6 0.00 2.84 1.17 94 1008.2
20260506100903 13 89 14.5 29.0 0.00 2.84 1.17 94 1008.2
20260506100004 13 89 16.1 25.7 0.00 2.87 1.17 94 1008.3
20260506095403 13 91 17.7 33.8 0.00 2.90 1.17 94 1008.2
20260506094503 12 88 16.1 38.6 0.00 2.95 1.17 94 1008.0
20260506093603 12 87 17.7 30.6 0.00 2.97 1.17 94 1008.1
20260506092703 12 85 16.1 29.0 0.00 2.97 1.17 94 1008.1
20260506091803 12 80 12.9 29.0 0.00 3.00 1.17 95 1008.1
20260506090903 12 77 11.3 27.4 0.00 3.02 1.17 95 1008.1
20260506090003 12 81 12.9 24.1 0.00 3.02 1.17 96 1008.0
20260506085618 12 83 14.5 24.1 0.00 3.02 1.17 96 1008.0
20260506084717 12 81 16.1 29.0 0.00 3.05 1.17 96 1008.0
20260506083603 12 82 12.9 33.8 0.00 3.05 1.17 96 1008.1
20260506082704 12 86 17.7 30.6 0.00 3.05 1.17 96 1008.2
20260506081803 12 89 17.7 33.8 0.03 3.05 1.17 96 1008.3
20260506080903 12 90 16.1 35.4 0.03 3.05 1.17 95 1008.2
20260506080218 12 87 17.7 30.6 0.03 3.05 1.17 96 1008.1
20260506072703 12 94 12.9 22.5 0.05 3.05 1.17 100 1008.3
20260506072017 12 91 14.5 20.9 0.03 3.05 1.17 97 1008.3
20260506070903 12 84 14.5 30.6 0.03 3.05 1.17 100 1008.3
20260506061803 12 92 9.7 20.9 0.00 3.35 1.14 100 1008.8
20260506060903 12 94 8.0 19.3 0.03 3.40 1.14 100 1008.7
20260506051118 12 92 11.3 17.7 0.03 3.58 1.14 100 1008.9
20260506044503 12 95 11.3 19.3 0.00 3.61 1.12 100 1009.1
20260506043603 12 97 11.3 22.5 0.03 3.61 1.12 100 1009.1
20260506042703 12 100 12.9 20.9 0.03 3.61 1.12 100 1009.4
20260506041803 12 97 14.5 25.7 0.05 3.63 1.12 100 1009.4
20260506040904 12 95 12.9 25.7 0.08 3.63 1.12 100 1009.4
20260506040003 12 99 12.9 24.1 0.48 3.63 1.12 100 1009.6
20260506035403 12 100 12.9 24.1 0.97 3.63 1.12 100 1009.6
20260506034503 12 100 11.3 17.7 0.99 3.63 1.12 100 1009.4
20260506033604 12 96 8.0 22.5 1.02 3.63 1.09 100 1009.5
20260506032703 12 94 6.4 22.5 1.04 3.63 1.09 100 1009.6
20260506031803 12 105 6.4 16.1 1.02 3.61 1.09 100 1009.7
20260506030904 12 89 4.8 16.1 0.99 3.56 1.04 100 1009.7
20260506030003 12 90 1.6 16.1 0.58 3.15 0.64 100 1009.9
20260506025618 12 7 0.0 3.2 0.15 2.74 0.23 100 1010.1
20260506024503 12 5 0.0 3.2 0.08 2.67 0.15 100 1010.2
20260506023603 12 5 0.0 1.6 0.03 2.59 0.08 100 1010.3
20260506022703 12 360 1.6 3.2 0.00 2.59 0.05 100 1010.4
20260506021803 12 217 0.0 3.2 0.00 2.59 0.05 100 1010.4
20260506020903 12 213 0.0 1.6 0.00 2.59 0.05 100 1010.5
20260506020003 12 213 0.0 1.6 0.00 2.59 0.05 100 1010.7
20260506015403 12 0 0.0 0.0 0.00 2.59 0.05 100 1010.6
20260506014503 12 213 0.0 1.6 0.00 2.59 0.05 100 1010.6
20260506013818 12 213 0.0 1.6 0.00 2.59 0.05 100 1010.6
20260506012917 12 213 1.6 3.2 0.00 2.59 0.05 97 1010.6
20260506011803 12 205 1.6 4.8 0.00 2.59 0.05 97 1010.8
20260506010903 12 201 1.6 4.8 0.00 2.59 0.05 97 1010.9
20260506010004 12 160 0.0 4.8 0.00 2.59 0.05 100 1011.0
20260506005617 12 101 0.0 1.6 0.00 2.59 0.05 100 1011.0
20260506004504 12 97 3.2 4.8 0.00 2.59 0.05 100 1011.2
20260506003603 12 95 1.6 4.8 0.00 2.59 0.05 100 1011.3
20260506002704 12 79 1.6 3.2 0.00 2.59 0.05 100 1011.3
20260506001803 12 85 1.6 4.8 0.00 2.59 0.05 100 1011.4
20260506001118 12 135 1.6 3.2 0.00 2.59 0.05 97 1011.4
20260506000004 12 182 1.6 3.2 0.00 2.59 0.05 97 1011.5
20260505235403 12 182 1.6 1.6 0.00 2.59 0.05 97 1011.6
20260505234503 12 182 0.0 1.6 0.00 2.59 0.05 97 1011.8
20260505233603 12 182 0.0 1.6 0.00 2.59 0.05 97 1011.8
20260505232703 12 182 0.0 1.6 0.00 2.59 0.05 97 1012.0
20260505231803 12 0 0.0 0.0 0.03 2.59 0.05 97 1011.9
20260505230904 12 0 0.0 0.0 0.05 2.59 0.05 97 1011.9
20260505230003 12 181 0.0 3.2 0.05 2.59 0.05 97 1012.1
20260505225403 11 180 0.0 3.2 0.05 2.59 0.05 97 1012.1
20260505224504 11 200 1.6 3.2 0.08 2.59 0.05 97 1012.3
20260505223603 12 213 0.0 3.2 0.13 2.59 0.05 97 1012.3
20260505222703 12 213 1.6 1.6 0.20 2.59 0.05 97 1012.3
20260505221804 12 215 0.0 3.2 0.23 2.57 0.05 97 1012.2
20260505220903 11 217 0.0 3.2 0.25 2.54 0.03 97 1012.3
20260505220004 11 217 1.6 3.2 0.23 2.51 0.00 97 1012.3
20260505215618 11 217 1.6 3.2 0.25 2.51 2.51 97 1012.4
20260505214503 11 207 1.6 4.8 0.25 2.49 2.49 97 1012.4
20260505213816 12 201 1.6 4.8 0.23 2.46 2.46 97 1012.6
20260505212703 12 98 1.6 6.4 0.20 2.39 2.39 97 1012.7
20260505212017 12 83 1.6 4.8 0.15 2.31 2.31 97 1012.8
20260505210903 12 100 0.0 6.4 0.10 2.29 2.29 97 1012.9
20260505210218 12 145 0.0 3.2 0.10 2.29 2.29 97 1013.0